{"data":{"norad_id":57014,"intl_designator":"2023-085L","name":"2023-085L","alt_names":[],"object_type":"PAYLOAD","status":"ACTIVE","operator":null,"country":"PRC","launch_date":"2023-06-15","launch_site_code":"TAISC","launch_vehicle":null,"mission":null,"orbit_class":"UNKNOWN","rcs_meters":null,"size_class":null,"mass_kg":null,"dimensions":null,"purposes":[],"wikipedia_slug":null,"has_3d_model":false,"image_url":null,"decayed_at":null,"tle_current":{"epoch":"2026-05-25T03:26:52.567008Z","epoch_age_seconds":72750,"freshness":"FRESH","line1":"1 57014U 23085L   26145.14366397  .00012886  00000+0  43135-3 0  9995","line2":"2 57014  97.4937 255.6824 0006198 122.6861 237.4978 15.31076269163099","mean_motion":15.31076269,"eccentricity":0.0006198,"inclination_deg":97.4937,"raan_deg":255.6824,"arg_perigee_deg":122.6861,"mean_anomaly_deg":237.4978,"bstar":0.00043135,"rev_number":16309,"period_min":94.051487124186,"perigee_km":468.35384930459,"apogee_km":476.84602281053,"semimajor_km":6850.7369360576,"source":"CELESTRAK","updated_at":"2026-05-25T13:37:59.793388Z"}}}